Total_Precipitation_Accumulation
0.01 0.00 0.00 0.00 0.01 0.00 0.01 0.01 0.02 0.02 0.03 0.05 0.06 0.06 0.06 0.06 0.06 0.04 0.04 0.04 0.08 0.15 0.20 0.21 0.20 0.25 0.25 0.25 0.21 0.15 0.11 0.07 0.05 0.04 0.03 0.03 0.04 0.05 0.06 0.05 0.04 0.05 0.01
0.01 0.00 0.00 0.01 0.01 0.01 0.01 0.01 0.02 0.02 0.02 0.03 0.03 0.03 0.03 0.03 0.04 0.07 0.06 0.07 0.12 0.16 0.17 0.19 0.20 0.20 0.19 0.17 0.13 0.08 0.05 0.03 0.02 0.02 0.03 0.09 0.18 0.18 0.14 0.13 0.12 0.11 0.01
0.00 0.00 0.00 0.01 0.01 0.01 0.01 0.01 0.01 0.02 0.02 0.02 0.03 0.02 0.02 0.02 0.04 0.07 0.08 0.10 0.15 0.16 0.14 0.14 0.15 0.14 0.12 0.07 0.04 0.02 0.01 0.01 0.00 0.02 0.08 0.27 0.43 0.30 0.17 0.17 0.17 0.12 0.03
0.00 0.00 0.00 0.00 0.01 0.00 0.00 0.00 0.01 0.01 0.02 0.03 0.05 0.04 0.03 0.03 0.04 0.06 0.08 0.10 0.13 0.12 0.11 0.10 0.10 0.08 0.05 0.02 0.02 0.01 0.00 0.00 0.00 0.03 0.10 0.31 0.61 0.51 0.28 0.20 0.20 0.18 0.14
0.01 0.01 0.00 0.00 0.01 0.01 0.00 0.00 0.01 0.02 0.02 0.04 0.06 0.07 0.05 0.03 0.04 0.06 0.11 0.15 0.17 0.16 0.17 0.17 0.14 0.07 0.03 0.02 0.02 0.01 0.01 0.00 0.01 0.07 0.20 0.45 0.74 0.66 0.38 0.23 0.24 0.26 0.27
0.01 0.00 0.00 0.01 0.01 0.01 0.01 0.01 0.02 0.04 0.04 0.04 0.05 0.07 0.08 0.05 0.04 0.09 0.17 0.21 0.22 0.21 0.25 0.31 0.25 0.16 0.08 0.04 0.02 0.02 0.01 0.01 0.03 0.14 0.30 0.51 0.68 0.54 0.31 0.21 0.19 0.26 0.32
0.01 0.00 0.00 0.01 0.01 0.01 0.01 0.02 0.04 0.05 0.06 0.08 0.07 0.08 0.10 0.06 0.04 0.10 0.20 0.25 0.26 0.25 0.25 0.23 0.17 0.13 0.10 0.06 0.04 0.03 0.02 0.01 0.05 0.17 0.36 0.51 0.52 0.32 0.20 0.14 0.13 0.15 0.19
0.01 0.00 0.00 0.00 0.01 0.02 0.02 0.04 0.05 0.04 0.05 0.07 0.07 0.09 0.10 0.06 0.04 0.09 0.18 0.26 0.31 0.28 0.21 0.16 0.12 0.09 0.08 0.06 0.05 0.03 0.03 0.04 0.05 0.13 0.25 0.29 0.30 0.16 0.11 0.10 0.09 0.08 0.09
0.05 0.04 0.03 0.01 0.01 0.02 0.02 0.03 0.04 0.03 0.03 0.04 0.04 0.06 0.08 0.07 0.06 0.09 0.16 0.21 0.20 0.14 0.12 0.10 0.09 0.07 0.04 0.03 0.02 0.02 0.04 0.05 0.06 0.07 0.09 0.11 0.13 0.07 0.04 0.03 0.03 0.03 0.03
0.30 0.53 0.33 0.07 0.02 0.01 0.01 0.01 0.01 0.01 0.01 0.01 0.01 0.03 0.05 0.06 0.08 0.10 0.13 0.11 0.08 0.04 0.03 0.03 0.03 0.02 0.02 0.01 0.01 0.01 0.02 0.02 0.02 0.02 0.02 0.02 0.02 0.01 0.00 0.00 0.00 0.00 0.00
0.52 0.73 0.33 0.11 0.03 0.01 0.00 0.00 0.01 0.00 0.01 0.01 0.02 0.03 0.05 0.12 0.15 0.15 0.09 0.08 0.04 0.02 0.01 0.00 0.01 0.01 0.01 0.00 0.00 0.00 0.00 0.00 0.00 0.00 0.00 0.00 0.00 0.00 0.00 0.00 0.00 0.00 0.00
0.36 0.28 0.16 0.08 0.02 0.01 0.01 0.01 0.01 0.01 0.01 0.02 0.04 0.04 0.11 0.19 0.21 0.14 0.06 0.04 0.02 0.01 0.00 0.00 0.00 0.00 0.00 0.00 0.00 0.00 0.00 0.00 0.00 0.00 0.00 0.00 0.00 0.00 0.00 0.00 0.00 0.00 0.00
0.35 0.13 0.07 0.06 0.04 0.02 0.00 0.01 0.01 0.01 0.01 0.02 0.04 0.05 0.11 0.10 0.08 0.05 0.04 0.02 0.01 0.00 0.00 0.00 0.00 0.00 0.00 0.00 0.00 0.00 0.00 0.00 0.00 0.00 0.00 0.00 0.00 0.00 0.00 0.00 0.00 0.00 0.00
0.23 0.13 0.07 0.07 0.05 0.03 0.01 0.01 0.02 0.02 0.02 0.03 0.03 0.03 0.06 0.07 0.05 0.04 0.04 0.03 0.02 0.01 0.01 0.00 0.00 0.00 0.00 0.00 0.00 0.00 0.00 0.00 0.00 0.00 0.00 0.00 0.00 0.00 0.00 0.00 0.00 0.00 0.00
0.19 0.12 0.11 0.10 0.05 0.03 0.01 0.00 0.01 0.01 0.01 0.02 0.02 0.01 0.02 0.02 0.03 0.03 0.02 0.01 0.01 0.02 0.02 0.02 0.01 0.01 0.00 0.00 0.00 0.00 0.00 0.00 0.00 0.00 0.00 0.00 0.00 0.01 0.01 0.01 0.01 0.01 0.02
0.17 0.14 0.14 0.09 0.03 0.02 0.01 0.01 0.01 0.01 0.02 0.03 0.02 0.01 0.01 0.02 0.02 0.02 0.02 0.02 0.01 0.01 0.01 0.01 0.00 0.00 0.00 0.00 0.00 0.00 0.00 0.00 0.00 0.00 0.01 0.01 0.01 0.01 0.01 0.02 0.02 0.03 0.03
0.22 0.19 0.18 0.08 0.03 0.02 0.01 0.01 0.02 0.03 0.04 0.05 0.04 0.02 0.01 0.01 0.02 0.01 0.02 0.02 0.01 0.00 0.00 0.00 0.00 0.00 0.00 0.00 0.00 0.00 0.01 0.01 0.02 0.02 0.02 0.02 0.03 0.03 0.04 0.04 0.05 0.05 0.04
0.31 0.43 0.36 0.12 0.05 0.03 0.02 0.02 0.02 0.02 0.03 0.03 0.03 0.01 0.01 0.00 0.00 0.01 0.02 0.02 0.02 0.01 0.01 0.02 0.02 0.03 0.04 0.03 0.03 0.03 0.03 0.03 0.04 0.04 0.04 0.03 0.03 0.03 0.04 0.04 0.04 0.04 0.04
0.53 0.86 0.64 0.19 0.07 0.05 0.05 0.04 0.03 0.02 0.02 0.02 0.01 0.01 0.01 0.00 0.00 0.01 0.02 0.02 0.01 0.02 0.04 0.06 0.09 0.09 0.10 0.09 0.07 0.05 0.05 0.04 0.05 0.05 0.04 0.04 0.04 0.04 0.03 0.03 0.04 0.04 0.04
0.95 1.39 0.91 0.34 0.15 0.07 0.05 0.04 0.04 0.04 0.04 0.04 0.03 0.02 0.02 0.02 0.03 0.03 0.03 0.05 0.05 0.07 0.09 0.12 0.14 0.12 0.09 0.08 0.05 0.04 0.04 0.04 0.04 0.04 0.04 0.03 0.03 0.03 0.02 0.02 0.03 0.04 0.06
0.89 1.08 0.78 0.46 0.28 0.17 0.15 0.14 0.12 0.11 0.11 0.10 0.09 0.08 0.11 0.14 0.14 0.13 0.10 0.11 0.10 0.10 0.09 0.07 0.07 0.07 0.07 0.05 0.05 0.03 0.02 0.02 0.01 0.01 0.01 0.01 0.01 0.01 0.01 0.01 0.01 0.01 0.03
0.58 0.62 0.60 0.54 0.49 0.33 0.26 0.26 0.26 0.24 0.21 0.20 0.22 0.28 0.30 0.25 0.18 0.14 0.12 0.08 0.08 0.07 0.06 0.06 0.05 0.03 0.03 0.02 0.03 0.02 0.01 0.00 0.00 0.00 0.00 0.00 0.00 0.00 0.00 0.01 0.01 0.01 0.00
0.44 0.51 0.57 0.59 0.60 0.47 0.39 0.38 0.38 0.38 0.37 0.38 0.42 0.45 0.39 0.29 0.19 0.13 0.09 0.07 0.05 0.03 0.03 0.03 0.03 0.04 0.03 0.01 0.01 0.02 0.02 0.01 0.00 0.00 0.00 0.00 0.00 0.00 0.00 0.00 0.00 0.00 0.00
0.42 0.49 0.52 0.60 0.65 0.64 0.60 0.53 0.51 0.50 0.48 0.47 0.39 0.35 0.27 0.19 0.13 0.09 0.06 0.05 0.03 0.02 0.02 0.01 0.02 0.02 0.02 0.01 0.00 0.01 0.01 0.02 0.02 0.01 0.00 0.00 0.00 0.00 0.00 0.00 0.00 0.00 0.00
0.41 0.47 0.57 0.63 0.65 0.67 0.65 0.62 0.58 0.46 0.36 0.30 0.24 0.19 0.16 0.13 0.10 0.06 0.05 0.04 0.03 0.02 0.01 0.01 0.01 0.01 0.01 0.01 0.01 0.01 0.01 0.01 0.02 0.03 0.02 0.01 0.00 0.00 0.00 0.00 0.00 0.00 0.00
0.34 0.44 0.53 0.58 0.59 0.59 0.59 0.54 0.41 0.35 0.32 0.28 0.23 0.18 0.14 0.10 0.07 0.06 0.04 0.03 0.02 0.01 0.01 0.01 0.01 0.01 0.01 0.02 0.01 0.01 0.02 0.02 0.02 0.03 0.03 0.02 0.01 0.00 0.00 0.00 0.00 0.00 0.01